RH
21 29 31 29 26 42 42 26 39 47 51 50 46 47 66 64 71 84 32 30 32 76 90 96 92 93 92 89 88 87 88 88 88 91 95 98 99 100 100 99 98 99 98 99 99 99 99 100 96
29 30 28 46 34 42 35 27 44 49 54 50 46 47 48 56 47 38 30 28 39 81 86 89 89 89 86 85 84 84 83 82 82 83 84 86 88 91 93 95 98 100 100 99 94 97 98 99 100
36 41 39 39 40 32 33 41 56 51 52 44 49 49 46 52 37 32 28 28 40 79 80 84 84 85 84 82 81 80 80 79 78 78 79 80 83 83 84 85 86 88 92 95 97 94 96 99 100
37 34 33 36 40 30 28 52 51 55 43 42 48 58 42 30 35 30 27 28 34 64 75 77 82 80 80 80 78 77 77 76 73 74 76 76 77 78 78 77 78 81 82 84 88 90 90 94 99
31 44 40 34 27 20 38 50 50 53 49 46 44 56 48 28 29 25 27 27 27 60 69 68 74 77 76 74 73 73 74 75 74 73 73 74 74 76 77 78 76 75 75 79 78 79 84 85 88
39 38 39 40 32 28 47 51 49 47 48 47 46 51 46 27 25 26 26 27 26 34 56 55 59 69 69 71 70 69 71 72 72 70 70 71 71 74 76 76 75 77 77 78 78 76 74 72 77
40 40 36 33 28 33 45 49 48 51 51 47 46 53 45 33 27 27 28 29 29 29 33 46 47 55 64 64 66 66 67 68 67 66 64 65 63 70 70 72 74 76 77 79 77 75 72 65 64
49 47 39 37 33 32 39 44 42 42 49 37 38 53 52 33 28 29 30 32 33 32 30 29 28 26 47 54 60 61 62 63 61 60 51 23 30 27 65 65 69 72 71 72 72 71 66 47 30
35 48 52 33 27 28 42 40 37 37 44 40 41 41 38 32 30 31 33 35 35 34 32 29 28 28 29 29 35 39 37 26 16 18 20 16 18 18 21 63 66 68 65 67 66 65 51 12 12
44 48 33 32 35 38 41 37 41 41 42 42 47 42 39 35 35 40 41 39 36 36 34 29 28 29 27 25 25 23 20 20 20 18 17 17 18 23 23 35 38 44 33 30 38 43 18 12 11
43 50 40 38 42 36 40 40 40 46 50 46 51 47 39 36 37 41 42 36 35 34 33 30 28 28 26 26 26 26 23 26 28 28 27 25 24 23 23 26 31 27 22 18 19 20 21 20 17
38 37 35 41 40 38 40 40 41 45 37 38 44 42 40 39 41 41 44 39 35 35 34 32 28 28 26 25 26 28 27 29 32 34 32 30 30 27 27 28 33 33 31 28 25 26 30 28 23
38 35 37 42 42 40 40 43 40 45 38 42 44 43 43 42 40 40 42 37 34 35 34 32 28 26 24 24 26 27 29 32 34 35 36 35 33 31 33 34 36 35 34 36 35 40 38 28 22
34 37 40 45 43 40 45 45 40 43 46 45 46 48 46 45 43 48 45 42 38 35 35 32 29 27 25 23 25 26 27 31 33 34 37 37 37 35 37 37 39 40 40 41 43 48 40 38 35
35 39 40 50 48 43 41 48 53 48 44 47 46 46 47 46 45 48 42 43 37 35 35 32 29 29 25 21 23 25 26 31 33 34 37 37 37 36 38 40 40 46 47 46 48 46 40 37 39
34 40 39 38 54 46 39 42 32 50 46 51 48 46 45 48 46 44 43 40 37 35 35 32 30 29 25 22 25 30 30 32 34 34 38 38 36 40 40 43 42 45 44 46 48 51 50 52 52
44 32 52 40 53 54 51 48 44 50 46 51 50 47 45 46 44 43 44 40 38 35 34 31 34 30 26 27 29 31 31 32 33 33 36 36 39 41 40 43 44 46 46 49 53 52 57 58 58
31 56 48 41 50 52 61 61 47 49 48 48 48 47 46 47 44 41 43 40 38 36 32 34 35 32 29 30 30 31 31 33 32 33 34 37 41 41 41 42 45 46 48 52 55 58 56 60 65
24 34 35 27 34 56 58 52 43 49 50 49 48 46 46 46 39 38 44 41 37 35 34 34 35 34 30 30 31 31 28 30 32 34 35 39 40 40 41 43 45 47 50 54 57 59 60 65 64
32 28 30 24 19 58 50 38 30 41 50 46 43 46 45 45 42 43 44 44 39 37 36 36 33 36 33 31 31 32 33 35 34 35 40 39 41 41 42 45 47 49 51 53 56 59 64 67 65
20 22 21 20 18 21 24 28 23 18 18 31 39 38 42 44 46 45 44 42 42 40 36 34 35 37 36 35 36 36 37 37 36 38 39 39 41 44 46 47 50 51 52 54 56 58 62 63 64
25 19 17 17 19 32 20 57 32 28 25 20 21 41 48 48 43 44 42 44 43 41 35 34 36 36 37 36 35 34 35 38 40 42 43 44 46 47 50 51 51 52 55 57 59 63 62 62 64
23 18 18 19 23 78 42 36 55 23 30 48 59 64 61 55 48 48 46 45 44 40 36 36 36 37 38 37 37 37 39 42 43 44 46 47 48 52 52 54 56 57 57 58 59 61 62 64 65
25 20 23 32 42 88 72 62 84 53 51 58 76 84 72 64 51 46 45 46 49 42 38 37 36 38 38 39 38 39 40 42 45 47 49 51 54 56 58 59 59 61 62 62 63 63 64 66 67
20 38 78 96 81 82 39 42 71 63 79 84 91 85 82 70 61 56 56 53 56 47 41 38 39 40 40 39 40 41 43 45 48 52 56 60 62 62 62 65 66 68 68 69 69 69 68 68 69
26 35 79 95 96 88 76 72 72 83 91 87 87 89 80 79 70 64 62 59 59 50 43 43 41 41 41 41 42 43 44 48 54 60 65 67 68 67 67 72 74 74 74 76 77 76 76 76 76
28 29 26 83 94 94 78 66 66 81 80 75 88 79 85 76 73 69 67 63 59 57 46 42 42 42 43 43 41 41 43 49 56 65 70 68 67 66 74 72 74 74 74 77 79 80 79 78 78
26 27 63 81 95 94 88 83 78 50 72 80 78 87 90 80 72 68 65 61 60 57 49 44 43 43 42 37 37 41 46 55 60 62 61 59 63 65 68 71 74 77 79 79 80 80 79 83 84
52 41 82 92 96 95 95 83 78 69 79 79 78 82 88 84 73 64 61 62 61 61 52 47 47 43 38 38 40 45 54 57 58 60 61 61 65 68 71 74 78 79 80 81 82 82 86 93 93
90 95 94 95 94 94 95 77 90 80 86 87 82 74 78 80 82 69 66 66 67 64 58 54 47 40 38 41 42 50 56 56 59 59 59 62 66 67 70 76 82 85 82 82 85 88 89 95 96
Wind_Speed
5 5 2 4 4 5 4 6 2 4 2 2 2 2 5 3 4 4 11 12 16 15 14 13 10 10 12 13 15 15 16 18 18 18 21 20 19 19 19 19 19 19 16 18 18 19 16 17 10
3 2 2 2 4 2 5 4 7 4 6 9 5 2 2 3 3 7 12 15 16 17 16 14 10 11 13 13 14 14 17 17 18 19 20 19 20 20 20 19 19 18 19 15 8 7 8 15 16
5 2 3 4 4 6 6 5 6 4 9 5 4 5 4 4 2 16 10 20 18 18 16 13 11 11 12 14 13 14 17 17 18 19 19 19 19 19 19 19 19 19 19 19 19 12 9 6 8
1 4 4 3 7 6 5 6 6 9 3 4 4 4 1 2 10 12 25 21 19 18 16 12 11 11 12 12 13 15 16 17 18 19 18 18 18 17 19 18 19 19 19 19 19 19 18 14 13
2 3 1 3 6 5 2 6 11 7 6 5 7 6 3 3 10 23 25 20 19 18 17 14 11 11 11 12 13 14 17 18 18 19 18 18 18 17 19 18 18 18 18 19 19 19 18 18 18
2 3 1 5 6 3 2 7 8 6 5 5 4 8 4 15 24 23 24 19 16 16 16 15 11 10 11 12 13 15 17 17 17 18 17 18 18 18 17 18 18 17 18 18 18 17 18 18 18
5 4 5 4 4 3 7 8 6 7 7 5 9 6 1 11 23 25 22 18 15 13 13 13 13 13 11 11 13 14 15 16 17 18 18 18 18 18 18 19 17 18 17 17 18 17 17 15 16
4 3 3 5 4 7 5 7 2 4 5 3 4 6 5 14 25 24 21 18 16 13 11 11 10 10 11 14 12 13 14 16 18 18 17 16 17 17 18 18 18 18 18 18 18 18 18 15 12
3 1 4 5 5 3 4 4 3 1 6 3 4 2 4 36 30 26 22 18 16 14 12 11 11 11 10 9 10 11 13 14 15 16 16 16 16 17 16 18 18 17 19 19 19 19 17 13 11
4 4 7 2 1 3 6 4 9 5 4 4 2 5 25 33 31 25 22 23 20 18 15 14 14 13 12 10 9 9 11 12 14 15 15 16 16 18 17 16 17 18 20 19 18 18 16 15 13
4 5 4 4 3 2 5 3 5 9 6 9 10 15 21 27 25 25 23 28 27 22 18 16 15 14 12 11 9 10 11 12 13 14 15 15 15 15 16 16 18 18 20 20 20 19 19 18 17
4 7 4 4 3 3 4 6 5 9 5 7 13 22 21 19 22 26 26 30 28 24 20 17 15 14 12 11 10 10 10 10 11 12 12 14 16 16 17 17 18 20 22 20 21 20 18 19 19
5 2 2 3 4 4 2 6 7 9 3 7 16 18 19 17 21 24 24 29 30 27 23 19 17 16 14 12 12 11 11 11 12 11 11 13 15 15 16 16 16 18 20 20 20 18 20 22 21
1 2 4 6 5 4 5 3 3 4 8 11 17 18 16 17 23 20 25 27 29 27 24 20 17 15 14 12 10 10 10 10 10 11 10 11 13 14 15 15 16 16 17 16 16 17 21 21 21
1 5 5 7 6 5 4 6 16 6 11 14 14 14 15 16 23 24 28 28 31 27 24 20 18 14 12 10 9 8 9 8 8 8 7 10 13 13 14 15 15 14 13 13 14 17 18 21 22
2 1 3 1 7 3 5 8 2 11 15 12 13 13 14 15 22 26 30 33 32 29 24 20 17 14 11 10 9 9 8 7 7 6 6 9 10 10 13 13 15 14 16 16 16 17 18 19 21
2 5 7 6 9 5 7 6 2 7 10 12 13 14 14 14 17 26 31 35 34 30 26 21 18 15 13 11 10 7 6 5 5 5 6 8 8 9 12 13 13 15 15 15 16 17 18 19 22
6 5 5 6 6 5 6 17 10 8 10 14 14 14 16 17 20 29 32 35 35 31 27 24 19 15 12 11 9 7 4 3 3 5 6 6 6 8 11 12 11 12 14 15 16 17 19 18 21
1 4 6 4 3 6 10 17 12 10 12 14 15 17 18 19 18 27 29 34 36 32 29 25 22 17 14 12 9 6 4 3 3 3 3 2 3 7 10 11 12 13 15 16 16 18 19 17 24
7 6 10 4 1 6 9 14 13 12 13 22 23 20 21 17 17 22 29 32 36 36 31 26 22 19 15 11 9 5 5 3 1 1 3 1 5 8 8 10 11 12 14 15 16 16 17 9 20
5 7 6 8 3 4 7 9 7 7 16 18 23 16 18 21 20 19 26 32 33 35 34 29 24 20 16 12 9 7 5 3 3 3 3 5 6 6 7 7 8 9 12 14 15 15 15 17 17
5 2 2 1 1 4 1 11 4 6 11 8 16 16 15 17 16 19 24 28 31 33 33 28 24 21 17 14 11 9 7 4 2 3 5 6 5 6 4 4 7 8 8 9 10 9 11 12 16
5 2 2 2 1 4 3 2 4 3 10 7 6 2 8 15 18 19 22 30 29 33 33 28 24 20 17 13 9 7 5 3 4 5 7 8 7 4 5 5 5 7 8 8 10 10 10 9 11
4 3 3 4 2 2 7 8 5 4 5 6 5 4 8 13 14 15 23 24 23 31 32 29 26 20 15 12 9 7 6 6 6 7 9 8 7 7 5 7 8 8 9 10 11 12 13 12 12
1 3 2 2 1 6 4 3 9 8 1 2 4 5 3 9 12 13 14 20 23 29 32 31 26 21 16 13 9 7 7 7 8 9 9 9 9 9 9 9 8 8 8 9 12 14 16 15 16
4 4 4 7 4 4 0 6 6 1 4 4 3 3 7 8 9 12 14 20 24 30 34 31 27 23 18 14 10 9 9 9 10 10 10 10 10 11 11 10 11 12 13 14 14 15 16 15 16
2 6 1 2 2 1 4 6 3 2 2 2 3 6 8 9 10 12 14 22 25 29 35 33 28 22 18 14 11 10 10 11 12 12 11 10 10 12 10 14 15 16 16 15 15 17 18 17 18
4 4 2 2 3 4 4 5 4 7 7 4 3 5 6 9 11 12 14 22 26 29 34 31 27 22 17 13 10 9 9 11 11 10 9 8 9 10 12 13 15 17 16 16 16 18 18 18 19
3 3 3 2 3 2 3 6 5 5 1 5 4 4 5 9 11 12 13 18 22 26 31 29 24 19 16 13 10 8 9 9 7 7 7 7 8 10 12 14 16 18 18 18 18 19 19 19 20
3 4 5 3 3 4 3 8 1 2 1 3 5 4 1 4 6 8 14 21 22 25 27 26 21 18 14 12 9 12 11 8 7 8 8 9 11 12 13 15 17 19 20 19 19 20 19 21 23
Wind_Direction
305 299 303 70 69 65 265 258 91 120 128 281 330 191 160 44 158 200 136 150 151 139 118 91 93 81 77 69 68 66 67 68 66 66 63 62 59 54 49 47 41 37 38 34 39 39 55 54 66
323 44 68 84 105 110 262 236 178 183 146 133 97 83 47 172 117 138 143 160 156 141 127 100 100 90 83 77 69 70 67 68 69 65 64 60 58 54 51 46 43 39 38 36 42 39 55 35 56
318 342 99 136 143 187 214 195 155 152 158 151 109 35 147 180 83 153 167 156 156 148 131 111 105 95 86 78 76 72 70 67 68 67 66 63 58 53 50 46 44 39 37 33 31 31 15 9 39
14 29 22 122 223 249 211 170 158 145 164 118 121 118 62 335 164 163 152 157 156 151 134 123 110 101 92 88 81 77 73 69 69 68 65 63 62 57 53 48 43 38 35 33 30 28 24 19 18
96 66 147 235 245 239 207 162 157 164 164 150 166 180 168 350 158 152 156 158 154 143 135 128 115 103 97 89 84 77 72 66 67 67 63 62 61 57 55 51 49 42 36 34 33 29 24 23 22
56 106 115 231 243 236 164 161 154 161 160 147 104 138 174 153 146 156 158 156 155 145 139 136 125 105 96 87 78 73 70 68 66 68 63 62 61 58 54 50 49 45 40 32 32 28 24 22 17
143 117 226 241 253 271 190 158 181 156 155 220 139 132 118 172 150 152 153 153 153 157 157 148 137 126 99 88 82 79 75 70 66 67 63 62 59 59 53 51 46 44 39 31 29 24 21 20 22
117 115 253 237 206 253 188 142 77 130 199 103 150 185 194 186 160 149 151 153 156 156 153 150 145 131 121 105 85 83 79 74 68 65 63 63 60 58 53 46 47 41 36 31 27 23 17 22 20
112 82 247 256 190 239 143 136 23 49 111 56 11 148 164 160 160 153 151 152 154 155 157 149 145 135 121 119 99 85 69 67 66 65 62 62 57 55 54 44 42 39 37 31 26 22 18 17 12
136 167 224 228 230 234 182 177 155 145 147 195 66 54 140 151 155 153 157 159 161 160 158 156 152 144 141 123 107 89 73 67 63 58 56 54 52 54 51 49 40 36 31 31 26 24 20 13 11
192 222 211 205 200 212 189 143 168 140 220 200 187 156 154 160 162 164 168 171 171 166 162 160 156 152 146 137 124 103 84 77 68 59 55 54 53 51 47 43 38 32 27 25 21 21 18 13 12
211 235 215 175 206 189 190 141 204 205 216 181 163 163 160 170 174 174 173 174 171 167 163 161 157 154 146 135 121 107 90 85 74 60 52 48 43 41 37 36 32 29 26 24 21 17 12 11 8
218 222 206 178 199 253 144 226 223 243 220 121 143 160 171 175 178 179 176 176 173 168 167 167 164 159 150 146 132 117 94 82 75 58 47 37 32 34 33 35 31 24 22 21 17 15 10 3 1
198 242 255 214 218 239 210 235 155 249 125 137 157 174 177 178 177 169 170 170 173 173 169 168 166 161 154 144 130 111 94 83 73 57 47 32 28 30 33 34 30 26 21 16 12 14 5 2 2
113 296 304 223 202 228 133 259 234 147 151 160 178 182 181 183 178 178 173 170 174 177 172 169 165 163 157 141 127 112 94 93 78 63 49 28 20 26 28 28 27 26 22 18 19 7 2 360 359
303 109 284 247 148 199 138 262 351 167 156 179 184 187 187 187 184 175 173 174 178 175 175 171 171 165 156 139 125 117 103 98 78 56 42 24 20 26 19 21 17 14 9 10 9 5 4 5 360
267 249 212 301 188 144 184 264 356 173 179 190 194 192 190 184 183 177 175 176 179 178 175 174 178 168 158 145 136 125 102 93 63 46 31 16 21 15 9 8 8 2 3 6 4 3 5 359 358
221 229 252 240 202 186 207 251 255 190 197 209 203 201 195 190 187 176 172 175 179 179 177 176 176 170 161 152 141 131 112 85 56 50 44 23 6 360 353 353 358 357 357 359 3 5 2 5 1
340 251 266 274 187 193 240 252 258 203 215 225 214 208 203 198 181 173 167 168 174 179 178 179 175 173 172 164 152 151 141 119 88 78 360 2 3 337 340 347 354 354 356 358 360 358 1 10 6
241 261 264 266 353 194 276 266 258 225 220 216 217 213 203 185 173 167 164 165 172 176 179 178 179 176 177 176 167 154 150 136 71 30 109 8 327 329 341 343 344 347 347 349 354 358 359 358 8
224 205 218 231 298 242 314 270 231 267 238 227 228 219 204 188 171 169 164 167 169 172 179 179 180 179 178 174 167 161 157 162 171 209 279 310 314 323 326 329 332 339 337 340 345 349 355 345 352
262 211 118 290 60 240 308 295 187 239 251 218 232 214 191 180 172 169 168 168 172 174 179 179 179 179 179 182 182 180 180 175 192 258 288 294 299 307 318 327 323 322 320 320 325 329 331 334 332
232 97 96 84 130 17 213 215 263 12 270 281 309 224 164 170 167 171 173 174 174 175 178 178 178 178 180 183 186 185 194 212 242 269 279 284 288 282 299 308 313 312 312 310 310 310 309 308 305
129 96 62 56 87 290 207 177 284 213 221 323 352 15 135 155 165 169 170 167 163 173 177 176 175 178 181 185 190 200 214 230 244 256 268 277 278 287 284 297 301 306 306 304 303 302 302 301 295
127 118 279 283 343 237 134 120 248 258 336 250 306 311 80 145 148 158 157 161 157 166 176 175 176 175 182 187 196 213 227 244 255 260 261 263 269 282 299 304 308 306 304 301 299 296 294 295 293
192 201 201 239 212 256 141 232 248 153 246 251 250 166 108 119 149 159 161 161 162 167 175 176 177 175 179 189 204 219 231 239 244 245 248 259 278 292 301 302 297 297 298 298 297 295 295 296 293
146 217 323 51 158 304 229 293 343 291 341 21 61 125 138 147 155 160 159 163 165 170 176 180 178 178 185 196 210 223 229 234 240 239 248 264 279 293 296 298 302 302 299 297 296 295 295 293 288
103 323 337 47 253 243 312 292 238 0 350 334 286 168 146 152 157 166 170 169 169 171 176 180 182 186 194 204 211 217 227 230 235 240 252 267 283 295 300 305 308 307 305 304 301 299 298 294 289
151 186 93 276 256 294 317 278 220 211 230 302 262 248 186 178 179 174 167 166 163 165 171 179 184 185 188 200 204 213 219 224 238 258 276 290 298 306 307 309 310 311 308 305 302 300 298 290 289
94 149 169 178 215 221 221 262 357 145 220 264 274 268 238 151 142 162 164 161 164 168 175 183 185 186 196 208 214 224 229 241 259 279 294 302 303 307 308 306 303 301 304 304 299 298 292 289 284